GFSCGP_850_spd_276.txt.gz
Wind_Speed
1 4 4 1 1 1 6 10 19 17 11 10 17 19 18 11 10 6 8 13 16 18 19 18 18 17 15 13 12 13 18 16 14 11 14 19 20 18 16 15 16 17 21 21
3 6 4 1 2 5 7 15 14 9 9 14 17 22 16 9 9 3 10 15 16 19 19 19 18 18 14 13 12 12 15 19 16 12 12 17 19 20 17 17 18 20 23 22
5 2 3 1 3 5 8 10 9 17 22 10 10 10 2 6 8 6 11 13 13 16 20 21 19 18 16 15 13 11 10 16 18 16 12 14 15 15 16 16 15 20 20 22
6 2 2 5 3 2 6 3 12 17 7 5 2 6 4 6 7 7 13 16 16 16 17 18 19 18 17 16 13 9 8 12 16 13 11 11 12 13 13 14 14 19 21 22
2 2 2 3 2 1 7 14 13 3 4 5 5 4 2 3 7 4 14 16 16 16 17 19 18 17 15 15 14 10 6 7 11 10 10 9 10 11 12 13 15 18 19 19
3 0 2 2 2 2 10 6 3 1 2 4 4 2 5 3 2 7 13 17 16 18 17 16 17 16 15 14 13 10 8 6 8 8 8 8 9 9 10 12 14 15 15 15
2 2 2 2 3 3 9 7 4 3 2 3 4 5 9 5 4 5 11 16 14 16 17 16 18 18 16 15 15 11 8 5 5 5 5 6 7 7 8 8 10 13 12 14
2 2 1 2 2 1 6 3 2 7 5 7 2 6 2 1 4 7 10 11 11 15 15 16 15 15 14 15 16 13 10 7 4 1 2 4 4 4 7 6 7 10 12 12
1 2 3 2 1 2 4 2 2 4 2 4 4 4 4 2 5 12 11 11 13 15 16 15 15 14 14 13 14 14 12 8 4 1 2 4 5 6 8 8 7 9 10 10
3 4 1 3 2 5 2 7 1 2 5 7 5 5 5 2 11 15 11 13 13 14 14 14 13 14 13 12 11 11 11 9 6 2 3 5 6 7 9 8 9 9 10 10
4 1 2 2 4 3 3 3 3 2 3 4 6 1 2 3 9 13 12 12 11 12 13 13 13 13 12 10 9 9 8 8 6 4 5 7 9 9 10 12 13 12 12 13
4 1 3 0 1 2 1 2 3 2 2 4 4 6 4 2 5 10 12 9 8 8 11 11 12 12 11 11 10 12 11 10 9 7 8 10 13 13 14 17 18 18 18 20
5 2 4 2 2 2 4 5 3 4 1 6 3 4 3 2 5 7 9 8 6 7 8 10 11 12 12 11 11 11 11 12 10 11 12 15 18 20 23 24 25 28 32 36
6 2 5 4 2 2 3 5 9 4 3 2 8 10 4 6 7 7 8 7 8 8 8 9 9 11 10 10 10 10 11 11 14 17 21 26 30 33 36 38 39 40 39 38
1 4 1 5 2 3 4 5 11 11 4 6 2 5 14 7 5 5 6 6 5 6 7 8 10 9 9 9 9 9 12 15 20 26 31 36 38 39 39 39 40 39 40 40
2 1 1 4 1 3 6 9 11 13 5 12 11 12 5 0 2 3 1 2 2 4 5 5 6 8 10 11 12 13 17 21 27 31 33 33 34 35 36 37 38 37 36 38
4 3 1 4 1 4 6 6 12 5 7 5 5 1 3 4 3 3 2 2 3 5 6 6 8 11 13 15 16 19 21 25 29 33 35 34 33 34 35 35 34 34 33 32
5 3 1 4 3 2 1 1 3 6 6 14 3 5 6 4 4 4 4 9 11 11 13 13 14 16 17 17 18 20 21 23 24 28 29 29 30 31 30 30 29 29 28 26
1 2 1 3 2 7 2 5 7 7 4 14 12 5 6 6 3 3 8 10 14 16 15 16 17 17 18 17 17 19 21 22 22 24 25 25 25 25 25 25 25 24 22 22
4 4 1 2 3 3 2 3 6 2 3 9 15 10 10 11 5 4 15 15 15 15 14 14 14 15 16 17 17 18 19 19 21 21 22 22 22 22 21 21 21 20 18 17
4 4 6 4 5 8 2 6 7 1 3 13 22 23 23 8 4 20 22 20 20 19 19 18 17 17 17 17 18 18 19 18 19 19 19 19 18 17 16 16 16 15 14 13
8 9 5 4 4 6 12 8 6 2 2 20 23 30 30 14 19 26 25 25 24 23 22 21 20 19 19 19 19 17 17 17 17 16 15 15 14 14 14 12 12 12 10 9
4 5 3 9 5 1 31 6 18 4 4 17 27 31 30 23 28 30 29 28 27 26 25 24 22 21 20 19 17 16 15 15 14 13 12 11 11 10 9 8 7 7 6 6
6 6 3 2 3 12 22 32 14 16 9 14 25 28 32 30 30 32 31 31 31 30 29 27 26 24 21 19 18 16 15 14 13 13 12 11 10 9 8 7 6 5 4 4
1 8 4 7 11 14 24 29 30 27 16 13 23 27 32 30 30 31 32 31 30 29 28 27 25 23 21 20 18 17 16 15 13 12 11 10 9 9 9 9 8 8 8 7
11 7 6 6 10 4 6 4 12 29 33 20 24 28 32 33 29 31 31 30 29 29 28 28 26 24 22 21 20 19 18 17 15 14 14 14 14 14 12 12 11 10 9 8

GFSCGP_850_spd_279.txt.gz
Wind_Speed
3 5 9 3 2 5 8 10 16 17 7 10 12 21 20 18 17 14 13 12 16 20 20 19 20 21 21 20 19 19 21 18 14 20 18 14 10 11 16 22 18 18 18 21
4 8 4 2 3 8 11 15 17 6 5 16 16 21 15 14 13 13 8 11 16 19 20 19 20 20 20 20 17 17 16 16 14 21 21 15 18 15 11 13 19 17 16 20
10 3 3 3 7 10 12 12 12 13 19 11 11 12 5 1 5 7 9 9 15 17 20 20 20 20 20 19 17 16 15 12 12 18 22 18 17 11 11 11 10 9 19 21
9 4 4 7 9 2 6 3 9 15 11 5 5 6 6 6 7 8 8 12 17 16 16 17 19 20 20 19 17 15 14 11 11 15 17 16 12 10 7 6 12 12 20 19
1 3 5 3 4 2 7 13 14 9 3 9 6 3 3 4 8 8 4 14 17 16 16 17 18 19 20 18 17 15 13 11 9 10 14 13 12 12 13 13 14 14 18 19
6 0 2 2 5 6 11 10 4 1 2 3 6 2 6 3 1 1 7 15 17 16 17 16 16 19 19 17 16 15 13 10 9 6 10 11 11 13 13 13 14 17 17 18
3 4 3 1 5 3 7 8 4 3 2 3 6 6 7 4 2 3 9 15 16 15 16 17 17 18 19 19 17 16 13 10 7 4 7 9 9 10 10 11 12 15 15 17
3 4 4 1 2 1 3 4 2 7 6 11 8 6 0 3 2 6 7 13 14 15 15 15 16 17 17 18 17 16 14 11 6 1 4 7 9 9 9 8 11 13 14 14
3 2 4 4 2 0 2 2 2 3 2 4 4 5 5 3 4 10 10 13 12 14 14 14 15 15 17 18 17 16 14 11 8 3 3 6 7 9 9 11 12 12 12 12
2 4 3 4 2 1 3 6 2 3 5 7 5 6 7 2 9 13 10 13 14 14 14 13 14 16 17 16 15 14 13 11 8 3 3 3 6 8 9 12 13 12 12 12
4 1 3 3 5 4 3 3 2 1 2 4 7 5 3 2 7 12 11 13 14 14 14 14 15 16 15 14 13 13 13 11 7 4 1 1 4 6 9 11 11 12 12 11
3 2 5 1 4 0 1 3 4 3 4 4 3 8 6 3 5 10 13 13 12 12 12 12 13 14 14 14 13 12 12 11 8 7 4 3 3 5 8 10 11 13 14 14
3 3 4 3 2 2 4 5 3 3 1 7 3 5 5 5 8 8 11 11 10 10 11 12 12 13 13 13 13 11 10 9 8 7 7 8 9 10 12 13 14 16 18 21
3 3 5 5 2 1 4 8 10 5 4 3 9 15 6 4 7 7 7 7 8 7 8 9 9 10 10 11 10 10 9 9 9 10 13 17 19 21 24 26 27 29 30 32
2 4 2 8 7 2 7 5 13 14 5 6 1 5 15 11 6 6 7 5 5 4 4 4 5 6 8 9 9 9 9 11 13 17 21 25 28 31 33 34 36 36 35 35
1 2 3 5 2 3 6 10 11 14 11 14 14 17 1 1 4 5 5 4 3 2 1 2 4 7 8 10 11 12 14 17 20 24 25 26 28 30 32 33 33 33 33 35
3 3 2 4 1 6 7 7 13 7 8 6 6 1 3 2 5 5 5 5 4 3 3 5 8 11 11 12 13 16 18 20 25 27 27 29 30 30 29 31 31 32 31 30
4 2 2 5 3 3 1 3 3 7 6 17 5 3 4 1 3 4 4 5 5 7 9 10 10 12 13 15 17 19 21 22 23 25 24 26 26 27 28 28 28 28 27 25
2 2 2 3 4 7 2 5 7 6 5 18 13 6 6 5 1 6 8 8 10 11 12 12 13 15 15 14 15 15 15 16 16 20 21 21 22 22 23 23 23 22 21 20
3 1 3 1 4 3 1 4 7 3 4 7 15 11 8 10 3 2 15 15 15 15 15 15 14 14 14 13 14 14 15 15 16 17 18 18 18 18 18 18 18 18 17 16
4 4 8 8 5 8 2 9 9 1 4 7 21 20 21 8 3 12 22 21 19 17 16 15 14 14 14 13 13 13 13 14 14 15 15 15 14 14 14 14 14 14 13 12
7 8 5 5 5 7 9 7 5 2 2 10 19 27 30 18 10 23 24 24 23 21 20 18 17 16 16 15 15 15 15 14 14 14 13 12 11 11 11 10 10 9 9 8
4 5 3 8 5 1 22 5 12 2 2 7 22 25 29 23 17 27 27 25 24 22 21 20 19 19 19 19 18 16 15 14 13 12 11 10 9 9 9 9 8 7 6 5
6 7 4 2 3 12 23 29 29 15 9 5 14 19 28 27 20 27 27 27 27 27 26 24 24 22 21 20 19 18 17 16 15 14 13 12 11 10 9 8 8 8 6 5
1 9 5 7 14 19 27 27 24 29 25 16 12 19 26 29 24 28 29 31 30 29 28 28 27 25 24 23 21 20 18 16 15 14 13 12 11 11 11 10 10 9 9 9
10 8 6 8 11 7 6 6 8 13 26 30 19 22 25 29 28 28 31 31 32 32 31 30 29 27 26 24 23 21 20 19 18 18 17 16 15 15 14 14 14 13 13 12

GFSCGP_850_spd_285.txt.gz
Wind_Speed
3 2 6 7 8 2 3 2 6 6 7 5 9 14 16 14 19 17 16 19 15 10 10 15 20 23 23 25 26 26 25 22 22 22 18 18 21 23 19 21 23 23 23 24
2 6 3 4 3 2 2 3 7 6 3 4 9 21 20 9 8 9 15 13 11 10 13 16 20 22 22 25 26 24 21 21 21 20 18 18 23 24 18 20 21 24 18 20
5 1 5 2 2 3 3 5 4 5 6 3 9 8 5 2 5 6 8 10 10 8 12 16 22 21 22 25 25 21 21 21 20 19 18 20 21 23 18 13 15 21 20 23
5 2 3 4 4 5 3 2 1 3 5 3 5 5 6 3 5 5 11 12 7 6 13 20 20 20 21 24 24 21 20 21 20 19 18 19 20 21 16 15 10 13 22 25
3 3 3 4 4 5 7 4 3 1 3 4 3 3 8 3 5 8 8 9 2 13 21 16 13 16 21 23 23 23 22 21 21 19 18 19 20 20 18 19 11 11 22 22
5 1 1 2 1 2 2 4 3 3 3 1 5 4 6 4 6 2 4 2 13 19 12 8 13 19 21 20 21 21 19 19 20 19 18 17 19 19 16 18 18 11 19 18
1 3 2 2 1 1 6 4 3 5 2 5 3 2 11 6 6 4 2 10 12 12 6 12 17 18 19 21 21 18 17 18 19 17 16 15 17 16 14 16 22 19 21 20
3 4 3 1 2 4 2 5 4 5 3 5 2 6 6 4 1 3 8 9 9 6 11 15 16 18 19 19 17 15 15 17 17 15 13 13 14 14 14 15 21 23 22 19
0 3 2 3 1 1 2 1 2 4 2 1 4 7 5 2 5 7 8 10 10 9 14 16 15 17 18 16 14 14 15 16 14 13 10 9 10 11 11 13 14 15 14 13
1 4 2 2 2 3 1 4 3 3 2 5 6 6 5 4 6 5 6 10 7 12 15 13 14 16 13 13 13 13 13 14 12 9 7 6 6 6 6 9 10 9 9 10
2 2 1 2 4 7 1 1 1 3 4 4 3 7 5 6 5 7 7 9 10 13 14 12 15 12 11 12 12 12 11 11 9 6 4 2 1 2 4 7 7 7 6 5
1 2 4 4 3 3 1 5 4 4 5 3 3 8 3 5 5 7 12 7 9 10 12 14 11 11 10 11 11 11 10 9 8 6 3 2 2 3 4 6 6 6 7 9
0 2 3 1 1 3 1 3 3 4 3 6 5 6 3 4 6 13 12 7 7 6 9 9 7 8 9 9 10 11 10 9 7 6 5 4 5 5 6 7 7 6 8 11
1 2 4 5 4 4 2 3 5 5 3 3 7 9 12 6 5 5 5 4 6 5 7 7 6 7 8 8 8 8 9 9 8 8 8 9 10 11 12 13 13 13 14 16
1 3 2 6 8 4 6 6 9 10 6 6 4 5 13 14 5 5 5 2 3 4 3 4 5 7 9 8 8 8 9 10 12 14 15 16 16 16 17 19 21 23 26 30
1 2 2 5 1 3 6 9 10 11 3 11 15 22 4 4 4 6 4 3 1 1 1 2 5 7 9 8 8 9 11 13 14 17 18 19 21 22 24 26 27 29 30 30
1 1 3 5 2 3 7 8 11 5 4 7 6 10 2 4 4 6 2 4 3 4 5 7 8 8 8 9 10 12 13 14 15 17 18 19 21 24 25 26 28 30 30 28
2 2 1 4 6 3 6 3 5 6 7 15 8 5 6 6 5 7 4 4 7 8 10 10 9 10 10 11 12 14 16 19 19 19 20 21 21 22 23 23 24 24 24 23
1 2 3 1 2 8 1 3 6 7 7 10 15 7 7 5 6 7 8 7 8 11 13 13 14 15 16 16 17 15 16 16 16 18 19 18 18 18 18 19 19 19 18 19
3 1 1 1 1 4 6 4 7 3 4 3 10 7 7 6 2 4 12 13 14 14 15 18 18 18 16 14 14 12 12 12 12 14 15 15 14 13 13 14 14 14 13 14
2 2 4 2 3 9 6 4 7 5 6 3 9 13 18 5 5 3 14 16 15 16 19 20 19 17 15 14 13 11 10 10 10 11 11 10 10 9 10 10 10 10 10 10
6 5 3 2 1 8 7 5 4 5 4 8 7 15 24 15 11 11 15 19 21 23 24 23 20 17 15 14 13 12 11 10 10 9 9 9 8 7 7 7 6 7 7 6
3 5 3 9 6 6 12 14 12 12 14 10 10 8 16 21 16 17 20 22 24 25 25 23 20 19 17 15 14 12 11 11 10 10 9 8 7 6 5 4 4 4 3 2
4 8 4 1 6 13 27 27 32 36 36 29 24 20 16 25 24 21 23 25 27 27 27 24 23 22 21 19 17 16 15 14 13 12 11 10 9 8 7 7 7 6 6 5
6 10 5 7 18 26 30 23 15 14 13 15 20 21 22 21 27 27 27 30 29 28 28 27 26 24 22 21 20 19 18 17 17 16 15 14 13 12 11 10 10 9 9 9
10 7 6 7 8 12 19 22 9 15 21 22 23 20 21 25 26 30 31 30 32 32 30 30 28 26 24 24 22 22 21 20 19 19 19 17 16 16 15 15 15 14 13 14

GFSCGP_850_spd_291.txt.gz
Wind_Speed
0 1 7 9 7 0 1 3 5 2 2 2 9 12 21 18 17 18 25 27 28 26 22 23 23 24 25 26 29 31 33 33 30 27 26 27 27 27 28 28 30 26 23 24
2 8 5 5 4 4 3 3 5 4 3 2 6 15 22 9 5 5 10 17 21 23 23 24 23 23 25 28 29 31 32 29 26 24 22 23 26 27 27 26 26 23 17 17
6 1 3 3 2 3 4 4 2 4 5 1 7 8 5 3 3 5 6 7 11 16 19 19 20 23 26 27 29 30 28 26 25 24 24 23 23 24 26 27 26 24 20 18
6 3 4 2 4 6 2 2 3 0 4 3 4 6 7 3 6 4 7 5 10 14 16 16 19 24 26 26 24 26 26 26 25 23 23 23 24 25 23 25 25 22 16 19
5 2 3 3 4 4 5 1 3 3 3 4 1 2 8 5 6 4 6 12 14 14 14 17 22 25 22 22 24 26 26 25 23 22 22 23 25 24 24 24 22 16 17 18
7 3 1 3 2 3 5 3 4 4 3 2 2 3 6 3 5 3 1 10 14 12 14 19 21 19 21 23 24 25 25 22 20 21 21 22 23 23 22 21 20 16 20 20
2 2 2 5 1 3 4 3 3 4 2 5 2 1 10 6 5 5 5 8 9 11 17 19 17 19 22 22 23 23 22 22 20 21 21 20 21 22 21 20 18 18 17 20
1 4 3 2 2 3 4 4 4 6 2 4 1 6 6 6 4 5 7 9 12 15 16 16 17 19 20 21 21 21 20 21 19 20 20 19 19 20 19 18 17 15 15 16
2 4 2 3 1 2 1 3 2 6 1 3 2 7 9 3 4 5 11 10 16 16 15 16 17 17 19 19 18 19 19 19 19 19 18 16 17 16 15 15 14 11 13 17
1 5 2 1 1 3 2 2 2 2 0 4 4 5 5 5 4 4 6 13 15 14 13 14 15 16 16 16 17 16 17 18 18 16 15 14 13 12 11 10 9 10 12 15
3 2 1 1 3 3 2 2 2 3 3 4 2 7 7 7 6 6 8 17 15 13 13 13 13 14 15 15 15 15 15 15 13 13 12 11 9 8 7 7 7 9 9 10
2 3 4 4 3 2 2 4 3 4 4 1 3 7 3 5 4 4 19 20 13 12 12 13 13 12 12 13 12 12 13 12 12 12 10 9 7 5 5 5 5 6 7 7
2 3 3 2 2 1 3 3 3 4 3 5 4 6 1 3 6 13 18 13 11 10 11 11 11 11 11 10 10 10 11 11 11 11 9 7 6 5 4 3 3 5 5 6
2 3 5 2 1 2 1 2 3 4 3 4 7 10 15 9 7 11 13 11 11 11 10 9 8 8 8 8 8 8 9 10 11 10 8 6 5 4 5 5 2 2 3 6
2 4 4 8 10 5 6 8 8 9 6 7 4 7 13 12 9 11 15 13 12 11 9 8 6 5 5 5 7 7 9 10 11 11 8 8 7 6 5 4 3 2 1 2
2 3 2 5 3 2 6 8 11 14 3 10 10 23 14 12 9 11 13 13 13 11 8 6 3 1 2 4 6 6 7 8 9 10 11 11 9 9 9 7 6 6 7 7
2 2 3 4 1 6 6 7 7 4 3 8 6 11 3 5 5 9 12 11 12 10 7 5 3 3 4 4 4 5 6 8 9 10 13 13 13 13 13 13 13 14 15 14
1 0 1 4 6 1 4 0 2 4 6 11 9 8 8 13 22 29 24 18 11 9 7 6 6 6 6 7 7 8 9 10 11 13 14 15 14 14 15 14 15 18 20 20
6 1 2 2 2 7 3 3 5 5 5 7 8 12 14 16 15 16 3 8 8 8 7 7 8 8 9 9 10 9 8 8 9 9 11 13 13 13 12 13 15 16 14 15
2 1 1 1 2 2 5 4 5 3 4 4 7 6 3 4 4 4 3 5 8 10 10 9 10 12 13 13 12 10 9 6 6 7 9 10 9 8 8 8 8 9 9 9
1 1 3 3 3 7 4 4 5 5 6 4 5 9 3 3 7 14 12 9 10 11 11 12 13 14 15 16 12 9 8 7 6 6 5 5 6 6 5 5 5 6 6 6
5 5 3 2 2 5 7 1 3 6 19 24 21 20 18 23 22 20 19 12 14 15 16 16 17 18 18 16 14 12 10 9 9 8 7 6 5 5 5 4 4 4 5 5
2 4 3 6 4 4 10 14 24 26 31 25 24 22 19 22 23 23 21 20 19 19 19 19 20 20 20 19 17 15 10 11 11 10 9 9 8 8 7 7 6 5 5 5
3 3 2 2 3 7 21 19 14 22 26 30 30 30 26 29 30 29 24 21 23 24 24 23 24 26 25 23 21 17 16 15 15 14 13 13 12 11 11 10 10 10 9 8
4 4 3 5 10 20 7 27 32 41 32 28 24 29 29 29 27 21 23 23 23 26 27 28 29 29 27 25 23 20 20 21 20 18 17 17 16 15 15 15 14 14 13 14
3 4 3 4 23 10 28 36 33 26 31 34 34 36 30 26 24 23 28 24 23 25 28 32 33 33 30 28 27 24 24 25 24 23 22 20 19 18 18 18 18 18 17 18